To NAV CANADA Home Page Login to a new session Search on AWWS site Feedback and Comments Disclaimer Vers la page française équivalente Tips FAQ What's new on the site To the Forecasts and Observations / NOTAM section To "File a Flight Plan" website Publications and other links Update of the User's profile FIC Telephone Numbers My Weather Data Folder Route Weather Data Regional Weather Data Local Weather Data To the Forecasts and Observations / NOTAM section
Request Generated 11/30/2015 at 20:37:19 UTC . Weather information available at that time is displayed.



METAR CYCS 302000Z 35011KT 15SM SCT070 BKN220 M21/M24 A2979 RMK
AC4CI3 SLP089=
METAR CYCS 301900Z 34013KT 15SM BKN070 BKN220 M20/M23 A2978 RMK
AC6CI1 SLP087=
METAR CYCS 301800Z 31014KT 15SM BKN070 BKN220 M19/M22 A2977 RMK
AC5CI1 SLP083=

CYCS - No TAF is issued for this station

Your time UTC time
Weather data provided by Environment Canada and NAV CANADA